HAWK-7B

导读 | 豆包AI

HAWK-7B是由美国发射的一颗卫星,于北京时间2023年4月15日8时成功发射入轨。作为HAWK系列卫星的成员,它延续了该系列卫星的技术路线,承担着空间技术验证、对地观测等相关航天任务,进一步充实了美国低轨卫星星座的部署规模,为后续相关航天应用提供数据与技术支撑,助力美国在商业航天和航天技术探索领域的持续发展。

基本信息
目录编号:
56193
目录名称:
HAWK-7B
国际标识:
2023-054R
轨道中心:
EARTH
卫星名称:
HAWK-7B
卫星全名:
--
卫星状态:
在轨 (已飞行1137 天)
发射日期:
2023-04-15 UTC
国别 :
美国 (US)
星等 :
--
轨道信息
数据来源 国际轨道数据
星历时间: 2026-05-25T13:50:58+0800
1天前
查看轨道信息
半长轴: 6862.685km
偏心率: 0.000382
轨道倾角: 97.276°
近地点辐角 110.788°
升交点赤经 31.421°
平近点角 249.377°
近地点: 481.926km
远地点: 487.17km
周期: 94.298分钟
每日圈数: 15.270798
详细信息
使用方式:
暂无
2D轨道图
3D轨道图
轨道高度分析图
轨道倾角分析图
轨道综合分析图
查看轨道综合分析图